Theta_e
332 331 330 328 329 328 327 327 327 327 326 325 326 326 325 326 326 326 327 327 327 327 327 327 328 328 327 327 328 327 327 327 327 327 327 326 324 322 320 323 326 327 323 324 322 322 321 320 320 320 320 319 318 318 318 317 317 319 318 317 315 317 318 316 315 317 316 316 316 316 316 316 316 315 314 315 314 313 313 313 313 313 312 313 313
332 331 330 328 328 327 326 326 325 325 324 325 325 325 325 325 325 326 325 326 326 326 325 326 326 326 326 326 327 326 327 326 327 326 326 326 325 324 317 320 323 328 327 323 323 322 322 320 321 320 320 320 318 318 317 317 316 318 319 317 316 315 317 315 314 315 316 315 315 315 314 315 315 314 314 315 314 312 312 312 312 312 312 312 312
332 332 330 329 327 326 325 325 324 324 324 324 325 325 325 324 324 324 324 324 324 326 325 324 325 325 325 325 325 325 325 325 325 325 324 325 325 324 324 317 320 324 326 322 321 321 322 321 321 321 320 321 319 318 318 317 316 316 319 319 317 314 316 314 314 314 315 315 314 314 314 314 313 312 312 313 312 312 312 312 311 311 311 311 311
333 332 331 329 327 326 325 325 323 323 323 324 323 324 324 324 325 325 325 325 324 324 325 324 323 324 324 325 325 325 324 325 324 323 324 325 325 324 323 322 318 319 322 326 322 322 320 321 321 321 319 320 320 320 318 318 317 316 315 314 314 316 313 315 314 314 315 314 313 313 313 313 312 312 312 312 312 311 311 311 311 310 310 310 310
332 332 331 330 328 326 325 325 324 324 323 324 324 324 323 322 323 323 323 323 322 322 324 323 323 323 323 324 324 324 325 324 323 323 323 324 324 323 322 322 322 316 316 320 325 325 321 322 321 319 320 319 322 319 318 318 317 316 317 316 315 314 314 314 314 314 313 313 314 313 313 312 312 311 311 311 311 311 310 310 310 310 310 309 309
331 331 331 329 327 325 325 324 324 324 323 323 322 322 321 321 321 321 319 320 320 321 321 321 321 323 322 323 323 323 323 323 322 322 323 323 323 323 322 322 321 321 321 316 317 322 324 322 321 320 320 319 319 318 318 317 317 317 316 317 317 316 314 314 313 313 313 313 312 313 312 312 312 311 311 311 311 310 310 310 310 309 309 309 309
330 329 329 328 326 325 324 324 324 324 322 322 321 321 321 320 320 319 320 319 320 320 321 320 320 321 321 322 321 321 321 321 321 320 320 322 322 322 322 322 321 321 321 320 312 314 319 324 321 320 320 319 319 319 318 318 317 316 317 317 317 316 315 315 314 313 313 313 313 312 312 312 311 311 311 310 310 310 310 309 309 309 308 308 308
330 329 328 328 326 325 325 324 323 322 321 321 321 320 320 320 320 320 318 318 318 319 320 320 320 320 320 320 321 318 318 319 318 318 318 318 318 319 320 320 321 320 317 319 318 316 315 319 323 322 320 320 320 319 319 319 318 318 317 317 316 316 316 315 314 313 313 312 312 312 312 312 312 311 311 311 310 310 310 309 309 309 308 308 308
330 330 328 328 326 325 325 324 322 321 320 320 319 320 319 320 319 319 319 318 318 318 318 318 319 319 319 317 315 314 315 314 314 314 314 314 316 316 316 318 319 311 319 320 319 318 314 316 319 321 321 322 320 320 319 319 318 318 318 318 317 317 316 315 315 314 313 312 312 312 312 312 312 312 311 311 311 310 310 309 309 309 309 308 307
331 330 329 328 328 327 326 324 321 320 320 319 318 319 319 319 318 319 319 318 317 316 316 317 318 317 314 312 311 311 310 308 308 306 309 311 313 313 314 314 313 314 315 318 319 318 318 314 315 315 313 317 321 320 320 319 319 318 319 319 318 319 318 316 315 315 314 313 312 312 312 312 312 312 312 311 311 310 310 310 309 309 308 308 307
331 330 329 328 327 327 326 324 320 319 318 318 317 317 317 318 317 317 318 318 317 317 316 317 315 311 311 307 306 305 305 305 305 306 308 308 307 308 310 309 310 310 311 313 314 316 319 316 316 316 315 313 319 320 320 319 318 318 318 318 319 320 319 317 316 315 314 314 313 312 312 312 312 312 312 312 311 311 310 310 309 309 309 308 308
332 331 329 327 326 325 324 320 319 318 317 316 316 316 316 316 317 317 315 315 315 314 313 310 307 307 304 304 304 303 303 303 304 304 304 304 304 304 305 307 308 307 308 309 308 309 312 316 315 316 315 314 314 318 320 321 319 320 319 319 320 320 319 318 317 315 314 313 313 313 312 312 312 312 312 311 311 311 311 310 310 310 309 309 308
332 331 327 324 324 324 323 320 318 316 316 317 318 318 317 316 315 316 314 312 310 308 307 308 306 305 305 305 305 304 303 301 301 301 301 303 302 301 302 303 304 305 306 306 305 305 307 310 313 314 314 314 312 311 315 318 318 319 320 320 320 320 321 320 319 316 314 314 314 313 313 313 312 312 312 312 312 312 311 311 310 310 310 309 309
329 329 327 326 324 323 323 322 320 318 318 319 319 315 316 314 314 311 312 310 308 306 305 307 305 305 305 304 305 306 303 300 301 301 301 302 301 301 301 301 302 304 304 303 302 302 303 305 307 309 312 313 313 312 312 312 314 319 319 319 320 321 320 321 320 318 316 315 314 313 313 313 312 312 312 313 312 312 311 312 312 311 310 310 310
329 328 327 326 325 324 323 323 322 319 317 317 316 314 313 312 311 310 306 306 307 305 305 307 306 307 308 305 304 304 307 301 303 303 303 302 301 301 300 300 301 302 302 301 301 301 302 303 303 306 308 309 310 312 311 308 310 310 317 319 319 322 321 320 319 320 316 315 315 313 313 313 313 313 312 313 313 313 311 312 312 312 311 310 310
330 330 328 329 326 324 323 322 318 317 316 315 313 312 311 310 310 309 308 304 303 304 305 306 308 308 302 303 303 302 301 305 305 306 304 302 302 302 302 302 302 302 301 300 300 300 301 302 302 302 304 305 307 308 311 312 309 306 307 310 314 319 320 320 319 319 317 317 315 314 314 313 314 314 313 313 312 313 312 311 312 312 311 311 310
331 332 330 328 327 325 323 320 319 316 315 314 313 312 311 310 310 309 308 308 306 306 304 305 307 311 308 303 300 298 301 305 308 309 305 303 303 304 305 303 302 302 302 301 301 300 301 301 301 301 302 303 304 305 307 309 311 308 308 303 307 313 317 320 320 320 319 318 317 316 315 314 314 314 314 313 313 314 314 313 312 312 312 311 311
333 332 330 327 327 327 324 323 319 316 314 314 314 313 312 311 310 310 309 309 309 307 305 304 305 307 310 310 309 305 305 306 306 303 306 307 306 305 304 304 304 303 302 302 301 300 300 300 300 300 301 300 300 301 303 305 306 309 309 309 307 309 312 316 319 320 319 318 318 317 316 315 314 314 314 314 313 312 314 313 313 312 312 311 311
333 332 330 328 327 327 326 323 320 318 315 314 314 314 313 312 312 310 309 309 309 307 307 303 303 304 307 308 308 305 303 304 303 305 301 303 303 304 303 302 302 302 304 304 303 302 301 300 299 299 299 299 299 299 300 301 304 306 309 310 314 313 313 313 315 317 319 318 319 319 318 316 314 315 314 314 314 313 313 313 313 312 312 311 311
331 331 330 328 326 324 323 321 319 317 315 314 314 314 313 313 312 311 310 310 309 307 307 308 301 302 304 304 305 307 306 301 300 301 301 299 302 304 304 304 302 302 305 305 303 302 302 300 299 299 298 298 299 299 299 299 301 303 305 310 314 314 314 314 314 313 316 318 321 320 319 318 316 315 315 315 314 314 313 313 314 313 312 312 311
331 330 329 328 324 324 323 322 320 318 314 314 313 314 313 312 311 311 309 309 309 309 308 308 305 304 304 302 303 304 305 304 302 299 296 297 298 302 303 302 301 303 303 303 302 302 302 302 301 299 299 298 298 298 298 299 299 300 305 309 313 316 316 316 314 312 312 312 316 318 320 319 318 317 317 316 314 314 314 313 314 313 313 312 312
330 330 330 329 326 325 324 322 320 318 314 315 314 314 314 313 312 312 311 309 310 308 308 308 308 307 306 305 302 302 302 302 302 301 299 299 297 299 303 304 299 299 300 299 300 301 302 302 300 299 299 299 298 298 297 297 298 299 301 304 309 313 315 314 314 314 312 311 311 312 316 316 317 318 318 316 315 315 314 313 313 313 313 313 312
326 327 328 328 326 324 323 322 320 317 315 316 315 314 314 313 313 312 311 310 309 308 307 307 308 307 306 306 304 303 302 301 302 302 300 298 297 298 300 301 301 302 302 300 300 300 301 301 299 299 299 299 298 298 297 297 296 297 297 300 302 306 310 314 314 313 313 313 313 313 313 314 316 318 317 317 316 315 314 314 313 313 313 312 312
324 324 324 325 325 323 323 322 321 320 319 318 317 315 314 313 313 313 311 310 309 307 307 307 306 307 307 306 306 306 305 305 305 305 303 302 302 301 300 301 299 301 303 300 301 300 300 300 299 299 299 299 299 298 297 297 296 296 296 297 300 302 306 311 314 313 313 313 312 312 313 313 313 313 314 315 316 315 315 314 313 313 313 312 312
321 321 322 323 323 323 322 320 320 320 319 317 316 315 314 313 312 312 311 309 308 307 306 306 306 305 305 306 306 305 305 306 306 306 306 305 302 300 300 300 298 299 300 298 297 296 299 300 299 299 299 299 299 298 297 297 296 296 295 295 298 300 302 305 310 312 313 313 312 312 312 313 312 311 313 313 315 316 315 314 313 313 313 313 312
320 320 321 322 322 322 321 321 321 320 318 318 317 316 314 313 312 311 310 310 309 308 307 307 307 306 306 305 305 306 306 307 306 306 305 303 301 299 298 296 296 297 298 291 292 294 296 296 299 299 298 297 298 298 297 297 296 296 295 295 296 298 299 301 304 307 310 312 313 312 311 310 312 311 310 311 314 314 313 314 313 313 312 313 313
322 323 322 322 322 322 321 320 321 320 319 317 316 315 314 312 311 310 310 310 309 308 307 307 306 306 306 305 305 306 306 306 306 305 305 304 303 302 299 296 296 297 297 298 296 293 298 297 295 297 298 297 297 297 297 297 296 295 294 295 295 295 297 299 302 304 306 308 311 312 311 310 311 311 309 310 311 311 313 313 312 312 311 312 312
323 323 322 322 322 321 320 319 319 319 319 318 317 315 314 312 311 311 310 311 309 308 308 307 307 307 306 306 305 305 306 305 305 305 304 304 304 303 301 298 295 293 296 296 297 298 299 298 296 295 296 296 297 296 296 296 296 296 293 295 294 294 295 298 301 303 305 305 307 309 310 310 310 310 310 309 309 309 309 309 310 309 309 308 309
320 321 320 320 320 320 320 319 318 318 318 318 317 316 315 313 312 311 311 311 310 309 309 307 307 306 306 306 305 305 305 305 304 304 304 303 303 303 302 300 299 295 293 293 296 297 298 297 297 296 296 296 296 296 295 295 295 294 295 294 294 294 294 297 300 303 304 305 306 307 309 310 309 309 308 308 308 309 309 309 309 308 308 308 308
319 319 318 318 318 315 317 318 318 318 317 316 316 315 314 312 312 311 311 310 309 308 308 308 307 306 305 305 305 304 305 304 304 304 303 303 302 302 302 301 301 297 296 293 294 298 299 297 297 297 294 295 295 295 295 295 295 294 293 293 293 293 294 296 298 300 301 304 305 306 308 309 309 308 308 308 308 309 309 308 307 307 307 307 308
317 316 316 316 315 315 315 315 315 316 316 315 315 313 312 311 311 310 310 310 309 308 308 307 307 306 305 304 305 304 304 303 303 303 302 302 302 302 301 301 300 299 298 295 292 296 300 298 299 298 297 295 296 294 294 294 294 293 293 292 292 293 293 293 295 297 299 301 302 304 306 308 308 308 308 307 307 308 308 307 306 306 306 306 306
315 315 314 313 313 313 313 313 313 313 313 314 313 313 311 310 310 309 309 309 308 308 307 307 306 305 305 304 303 303 303 302 301 301 301 301 301 301 300 300 299 298 298 296 294 294 299 299 300 300 297 295 294 292 292 292 292 291 291 291 291 291 291 291 292 294 296 298 300 302 304 306 307 307 307 306 307 306 307 306 306 306 306 304 306
313 312 312 312 312 312 311 311 311 311 311 311 312 312 311 310 309 309 309 308 307 306 306 306 305 304 304 303 303 303 303 301 301 300 300 301 300 299 299 298 298 298 297 295 293 294 296 299 298 298 300 297 293 291 291 292 291 290 290 290 290 289 289 290 290 291 293 295 296 298 300 302 304 305 305 306 305 305 305 306 306 306 304 304 303
311 311 310 310 310 310 310 310 310 310 310 311 311 310 309 309 309 309 309 308 307 306 306 306 306 306 304 303 303 302 302 301 301 301 300 300 299 299 298 297 297 297 298 296 295 293 293 296 296 298 298 298 297 293 292 293 292 290 288 287 288 288 288 288 288 288 291 292 294 295 297 299 301 302 302 302 304 305 306 306 305 303 303 303 302
309 309 309 309 309 309 309 309 309 309 309 309 309 309 308 308 307 308 308 307 306 305 305 305 305 305 304 303 302 301 302 300 299 300 300 299 299 298 298 298 297 297 297 296 295 293 293 294 297 296 296 296 294 294 291 292 292 291 289 288 287 287 287 287 287 287 290 291 293 294 295 297 298 299 300 301 302 303 303 303 303 302 302 302 302
307 308 308 307 307 307 307 307 307 307 307 307 307 307 307 307 307 306 306 306 306 305 305 304 304 303 301 300 299 299 299 298 299 299 299 299 299 298 297 298 297 297 297 296 295 294 294 293 295 295 296 295 296 296 295 291 290 290 289 289 288 287 287 287 286 286 288 291 292 293 294 295 296 296 297 299 301 302 302 302 301 301 300 300 300
305 305 305 305 304 304 305 305 305 305 306 306 306 306 306 306 306 305 305 305 305 304 304 304 299 302 301 299 299 298 298 297 298 298 299 298 298 298 297 297 297 297 296 295 295 294 293 292 293 295 295 295 295 295 293 289 288 287 287 287 287 286 286 286 286 286 288 289 290 291 292 293 294 295 296 298 299 300 301 301 300 300 299 300 299
303 303 303 303 302 302 302 302 303 304 304 305 304 304 305 305 305 304 304 304 304 304 303 302 302 302 300 300 299 298 297 297 296 296 296 296 296 296 295 295 295 295 294 294 294 293 292 292 292 292 294 293 293 294 293 289 289 288 286 285 285 285 285 285 286 286 286 286 286 287 289 290 292 294 295 296 297 299 300 300 300 299 298 297 298
301 301 301 301 301 301 301 301 301 302 302 303 303 303 303 304 303 303 302 301 301 301 301 301 301 301 300 300 299 298 297 297 297 296 296 295 296 295 295 295 294 294 293 293 293 292 292 291 292 292 292 293 293 292 291 289 288 289 288 287 285 285 284 284 284 285 285 285 286 288 287 288 289 290 293 294 295 297 299 299 299 298 297 296 297
299 299 300 300 301 300 301 300 301 301 301 301 302 302 302 303 303 302 302 300 299 299 298 298 299 298 298 298 298 299 299 299 298 297 296 296 295 295 296 295 294 293 293 292 292 292 291 291 291 291 292 292 292 292 289 285 285 285 285 286 286 288 285 284 284 284 285 284 283 284 286 287 288 290 292 293 294 295 296 296 297 296 295 295 296
299 299 299 299 298 299 299 299 299 299 299 300 300 301 301 301 301 301 301 300 298 297 297 297 297 297 298 299 298 298 298 294 294 295 295 296 297 295 294 294 293 293 292 292 292 291 291 291 290 291 291 290 291 290 289 286 285 286 288 285 285 286 287 286 285 284 284 283 283 282 282 284 283 284 286 287 289 291 292 293 294 294 294 295 296
298 298 298 298 298 297 297 297 298 298 298 299 295 293 294 298 299 300 300 299 298 297 296 296 296 296 296 297 298 293 292 291 291 292 293 293 293 295 296 294 293 292 291 291 291 291 290 290 290 290 289 289 290 290 290 291 290 288 286 286 284 285 285 285 285 285 284 283 282 281 282 283 283 283 284 284 286 288 289 290 291 293 293 296 295
296 296 296 296 296 297 296 296 296 297 297 298 293 295 295 294 295 296 296 296 297 296 296 295 294 294 295 296 297 294 292 291 291 291 292 293 293 293 292 293 293 293 291 290 290 290 290 290 290 290 290 289 291 291 291 291 291 288 287 286 286 286 284 283 282 285 284 283 281 281 281 283 283 281 282 283 285 286 288 288 291 293 293 295 295
295 295 294 295 295 296 297 296 296 296 296 294 294 294 294 294 293 294 294 294 295 295 295 295 295 295 295 295 296 296 296 295 295 294 292 291 292 292 292 292 292 292 293 291 290 290 290 289 289 290 290 289 290 291 290 290 289 289 288 286 286 285 284 284 283 283 285 283 281 280 280 283 282 281 281 282 284 285 286 289 291 293 294 294 294
294 293 294 294 295 295 295 295 295 296 296 294 294 294 294 294 294 293 293 293 293 294 294 295 295 295 295 294 294 295 296 291 291 293 294 293 291 291 291 291 291 291 293 293 293 291 291 290 289 289 290 290 289 291 291 290 290 289 289 287 286 285 285 284 285 285 285 283 281 280 279 282 281 281 280 282 283 284 285 289 291 292 293 293 293
291 292 292 293 293 293 294 294 294 295 295 293 294 293 293 293 293 293 293 293 293 294 294 294 294 294 294 294 293 293 294 294 294 293 293 293 293 292 292 291 292 291 290 291 291 291 290 290 290 289 291 290 290 291 292 291 289 288 288 288 287 285 285 284 286 286 285 283 281 280 279 280 281 280 280 281 283 283 284 287 289 291 292 292 293
289 290 291 290 292 290 292 293 293 292 293 293 293 293 293 293 293 292 293 293 293 293 294 294 294 294 294 294 294 293 294 294 294 293 293 292 291 290 289 290 291 292 292 292 291 291 291 291 290 290 291 292 292 292 292 291 290 289 289 288 288 288 287 287 286 285 283 283 282 281 278 281 281 280 280 281 282 283 284 286 289 290 291 291 292
289 290 290 289 289 289 290 290 291 291 292 292 292 292 292 292 293 292 292 292 292 292 293 293 294 294 294 294 293 293 293 293 292 292 292 292 290 289 288 288 289 290 291 291 292 292 292 292 292 292 292 292 292 291 290 290 289 289 289 288 288 287 285 283 283 284 283 283 282 281 279 280 282 279 280 282 282 281 283 283 286 289 290 291 291
288 289 288 289 289 289 289 289 289 290 290 291 291 291 291 292 291 289 291 290 290 291 291 292 292 293 293 293 293 293 293 292 292 293 293 291 289 288 288 288 288 288 288 291 291 292 292 292 292 293 293 293 294 294 294 294 291 291 289 287 286 286 283 281 282 283 283 283 281 282 280 279 281 280 279 280 281 280 281 282 283 287 289 290 290
288 288 288 289 289 289 288 288 289 288 288 289 290 290 290 291 290 288 289 288 288 289 290 291 291 292 292 288 288 291 292 292 292 292 293 290 289 288 288 287 287 287 287 289 289 290 291 291 291 291 292 292 292 293 293 293 293 292 288 286 287 286 283 283 281 283 283 283 281 283 279 279 280 281 279 279 279 281 281 281 282 283 286 288 290
287 288 288 288 288 288 288 288 287 287 287 287 289 289 290 290 289 288 288 288 287 288 288 289 290 291 291 289 288 288 290 290 291 292 292 290 288 288 287 287 286 286 288 288 288 287 287 287 287 288 288 288 288 288 288 290 290 289 288 287 287 286 283 283 283 283 281 282 282 283 278 278 279 280 279 275 275 278 281 281 282 282 283 284 285
Wind_Speed
4 4 4 4 4 4 3 3 3 3 3 3 4 4 4 3 3 3 3 3 3 4 3 4 3 3 3 4 3 4 3 2 2 2 2 3 5 5 3 5 3 7 6 7 5 6 4 5 5 5 6 6 5 6 8 7 7 8 7 8 6 7 10 6 7 11 9 9 10 10 10 10 10 10 11 11 11 10 11 11 12 12 12 12 12
5 4 4 4 4 4 4 3 3 3 3 4 4 4 4 3 3 3 3 3 3 4 4 4 4 4 4 4 4 5 3 3 2 3 3 3 4 6 7 5 4 7 7 4 8 7 7 5 6 5 7 7 5 7 6 6 7 9 9 7 7 8 10 8 7 9 9 8 9 9 9 10 10 10 10 11 10 10 10 10 10 11 11 11 11
5 5 4 5 4 5 4 4 4 4 4 4 4 4 4 4 4 4 4 4 4 3 4 4 5 4 5 5 5 5 4 4 3 4 4 3 3 6 6 4 5 5 2 4 3 7 7 7 7 7 8 10 8 6 8 7 7 7 9 10 10 7 8 7 7 8 8 8 7 8 9 9 9 9 9 9 10 9 9 9 9 9 10 10 10
6 6 5 5 5 5 5 5 5 4 4 4 4 4 4 3 3 3 3 3 4 3 5 5 5 5 5 6 5 6 6 4 5 5 5 3 3 4 6 5 4 5 4 6 10 10 5 9 8 10 7 9 8 11 8 9 8 8 7 5 5 9 7 8 8 8 10 9 8 8 8 8 8 9 9 9 9 9 9 9 9 9 9 9 9
7 7 6 5 5 5 5 5 5 5 5 5 5 5 4 4 4 3 4 4 4 4 5 5 5 6 6 7 6 6 6 6 6 5 5 5 5 4 5 7 7 6 5 9 8 2 9 9 11 7 10 8 13 9 8 9 8 8 10 12 8 8 8 8 8 8 9 9 11 9 8 8 8 8 9 9 9 9 9 8 8 8 8 9 9
5 6 5 5 5 5 5 5 5 5 5 5 6 6 6 6 6 6 6 6 6 6 5 6 6 4 4 6 6 5 4 4 5 5 4 5 5 5 4 5 7 6 5 7 5 8 9 13 10 9 10 10 11 8 9 10 9 10 9 12 12 10 9 8 9 9 9 9 9 10 10 10 9 8 8 8 8 8 9 9 8 8 8 8 8
6 5 6 5 5 6 6 6 5 5 5 5 6 6 6 6 6 6 7 6 7 6 6 6 6 6 5 5 5 4 3 4 4 3 3 4 5 5 5 5 7 6 6 6 5 5 5 10 10 11 12 11 12 10 10 10 10 10 11 11 11 10 10 11 11 10 11 10 10 9 10 9 9 9 9 9 8 8 9 9 8 8 8 8 8
8 7 6 6 6 6 6 5 6 5 5 5 5 6 6 6 6 6 6 7 7 7 6 6 6 6 5 4 4 3 3 3 4 3 2 2 2 2 3 3 4 5 6 7 6 7 8 8 8 13 14 13 13 11 12 12 12 12 12 13 12 12 11 12 12 12 12 12 11 11 11 11 10 11 11 10 10 9 9 9 9 9 9 9 8
9 9 8 7 7 7 6 7 6 6 6 5 6 5 6 5 6 6 6 5 6 7 5 6 5 5 5 3 1 1 2 2 1 1 1 2 3 3 2 3 2 3 3 6 6 7 11 12 8 11 9 13 16 14 15 13 14 14 14 14 13 12 12 12 12 13 13 13 13 13 12 12 12 12 12 11 11 10 10 10 10 9 9 9 9
10 9 8 7 7 7 6 7 7 6 6 6 6 6 6 6 6 6 6 6 5 6 7 6 5 4 3 1 1 1 1 2 3 3 3 3 4 3 3 2 2 2 3 3 3 5 5 13 14 11 12 10 13 17 16 17 17 15 15 16 16 16 15 14 15 15 14 14 15 14 14 14 13 13 13 12 12 12 11 11 11 11 10 10 10
9 9 8 8 7 7 7 7 6 6 5 6 6 6 7 7 7 6 6 6 5 5 5 5 3 3 2 2 1 0 1 1 2 3 3 3 3 3 3 3 3 3 3 3 3 2 2 6 7 7 9 12 10 14 16 18 15 17 16 17 16 17 17 16 16 15 15 15 15 14 15 15 15 14 15 14 13 13 13 12 12 12 11 11 11
10 9 9 7 6 6 6 5 5 5 6 7 7 7 8 8 8 7 6 5 3 1 1 2 3 2 1 1 2 2 3 2 3 3 3 4 3 2 4 3 3 3 3 2 3 3 3 2 4 7 7 9 12 13 15 16 15 18 18 17 18 18 18 18 17 16 15 14 15 16 16 16 16 16 16 15 15 14 14 14 13 13 13 12 12
9 8 7 6 5 4 5 5 6 6 7 9 8 8 7 7 6 5 6 6 4 3 2 3 2 2 2 4 3 4 4 3 5 5 5 4 4 4 4 5 4 4 3 1 3 3 4 4 4 4 7 6 8 13 14 13 13 18 19 19 19 20 20 19 18 17 17 16 17 17 18 17 17 17 17 17 16 16 15 15 14 14 14 13 14
6 7 7 7 6 7 7 8 7 7 8 7 7 7 6 5 4 3 2 3 3 3 3 4 3 5 2 2 4 5 7 6 8 8 7 7 6 6 6 7 8 6 2 2 3 5 5 5 5 5 5 5 7 8 9 10 11 15 20 20 21 21 21 22 23 21 19 19 20 19 18 18 18 19 19 18 17 17 16 16 16 15 15 15 14
7 7 7 8 10 9 8 7 8 7 7 7 6 6 6 5 5 5 2 1 1 2 6 8 4 2 2 3 5 4 3 3 7 11 9 7 5 8 8 8 10 7 5 3 3 5 5 5 6 6 7 7 4 6 8 10 11 13 15 18 19 22 23 23 20 22 20 21 20 19 19 19 19 19 21 18 19 18 18 17 17 17 16 16 16
9 9 8 10 10 9 7 6 5 5 5 6 5 4 4 3 5 4 4 4 4 5 6 7 6 6 3 6 2 1 7 7 7 8 9 10 9 10 8 10 9 8 5 7 5 5 7 6 7 8 8 7 6 6 5 7 13 13 14 15 16 21 25 24 23 22 21 22 21 20 20 20 20 20 21 21 21 19 20 20 19 18 17 17 17
10 11 10 10 9 8 7 6 6 3 4 5 5 6 6 5 6 6 8 9 7 5 6 8 9 8 7 2 1 3 7 5 4 4 7 7 11 11 11 8 9 9 8 9 6 7 8 7 7 7 8 7 7 7 6 5 7 10 11 14 17 19 19 23 25 24 24 23 21 22 21 21 21 21 22 23 23 21 21 21 20 19 19 18 17
7 6 8 7 8 8 8 7 7 5 6 7 7 6 7 8 10 9 9 9 8 6 5 6 8 10 10 8 5 5 2 0 1 5 3 5 5 8 11 11 8 8 7 10 9 9 8 8 7 8 8 7 7 7 6 7 7 7 8 10 16 17 16 19 25 26 25 25 23 24 25 23 22 22 23 23 24 25 23 22 21 21 20 19 18
8 8 8 8 7 6 7 7 7 7 7 8 8 9 9 9 7 8 8 8 8 8 10 3 3 7 9 12 11 5 2 1 7 5 9 2 4 5 7 10 10 11 12 11 12 10 9 9 10 9 9 8 8 8 7 8 9 10 13 13 14 15 12 16 20 24 26 28 27 26 27 28 26 23 24 24 24 25 24 24 23 22 21 20 19
8 9 8 7 8 7 6 7 7 7 8 8 8 7 4 5 8 7 6 6 8 10 9 8 8 6 8 10 11 12 5 1 1 6 7 9 6 3 4 7 8 12 14 13 13 13 12 10 11 10 9 9 8 8 9 8 8 9 10 15 18 17 16 17 20 21 21 22 22 24 26 26 25 26 26 25 25 24 25 25 25 23 22 22 21
7 5 6 7 8 8 8 8 8 8 7 7 8 7 9 9 8 8 9 9 9 9 9 8 7 8 5 8 7 10 9 8 5 3 6 8 12 10 10 2 3 8 9 10 10 10 12 12 11 10 9 9 9 10 9 8 9 9 10 16 20 23 23 21 21 21 22 22 21 22 24 28 29 28 28 26 27 26 26 26 26 25 24 24 24
8 9 7 6 6 8 8 9 9 9 8 8 8 9 9 9 9 8 9 10 8 10 11 10 8 8 8 5 6 7 7 8 8 9 8 10 14 10 10 10 9 6 8 9 12 12 12 10 10 10 10 10 10 10 10 10 10 9 11 15 17 21 25 25 23 22 23 23 22 22 24 27 30 29 29 29 28 28 27 26 27 27 25 25 25
6 6 6 6 6 7 8 8 9 9 9 9 8 8 9 9 8 9 10 10 8 9 9 10 8 7 9 8 9 10 11 11 11 9 10 9 9 11 13 12 13 12 7 9 10 12 11 10 10 11 12 11 11 10 10 11 13 13 16 13 16 18 20 24 27 26 26 24 23 22 23 23 24 28 29 29 29 28 27 27 27 28 27 27 26
7 5 5 6 7 6 7 8 8 8 9 8 8 8 8 8 8 9 9 10 10 9 9 11 9 8 10 8 9 9 10 11 9 8 8 11 11 12 10 7 7 9 6 2 5 8 9 11 11 12 12 11 11 11 11 11 12 19 17 18 19 20 22 23 26 27 25 25 25 26 25 24 23 25 28 30 31 29 28 28 27 27 28 27 26
6 7 9 10 8 8 7 7 7 7 8 7 8 9 8 8 8 9 8 9 9 10 10 12 11 11 10 10 9 10 11 10 9 10 9 7 7 11 10 6 11 10 6 4 6 4 9 10 9 12 12 12 11 10 11 12 12 16 21 17 22 20 21 22 24 28 27 26 27 29 29 27 28 28 29 31 31 30 28 28 28 27 27 26 25
8 9 9 10 9 8 7 7 8 7 7 8 7 8 9 8 8 9 10 9 9 11 12 12 11 12 7 8 11 11 11 9 10 10 11 8 9 10 10 6 6 11 6 3 2 4 7 8 10 11 11 12 12 13 12 14 14 20 23 17 15 19 20 20 22 23 24 25 28 27 27 27 30 29 29 35 34 34 33 29 28 28 27 25 27
7 7 7 8 8 8 8 8 8 8 6 7 6 6 8 7 8 8 8 6 10 10 8 12 12 10 11 12 11 11 11 8 8 9 8 9 10 9 8 12 11 10 11 8 7 12 13 6 9 11 12 11 12 13 14 13 17 22 20 15 13 18 18 22 23 25 26 24 24 27 28 28 27 30 33 30 30 33 34 35 35 30 27 27 26
6 5 6 5 6 8 7 8 8 8 7 6 6 5 6 7 7 7 8 7 8 10 8 9 13 13 13 11 10 12 9 8 8 9 9 9 9 8 8 9 11 15 9 13 8 12 9 11 6 11 10 11 12 12 15 16 13 20 20 13 12 13 17 22 24 26 26 27 27 26 26 26 27 26 25 27 29 30 28 28 30 28 21 23 24
5 5 5 7 6 6 7 7 8 8 7 6 6 5 4 5 6 7 8 7 8 10 8 9 10 11 11 12 11 10 10 9 9 9 9 9 9 9 8 10 9 11 13 11 12 10 5 10 7 6 13 10 10 9 11 11 15 17 12 13 13 13 15 22 26 26 26 27 27 27 26 25 27 27 27 28 30 30 31 25 24 24 19 19 23
5 4 5 6 5 5 6 7 7 8 8 8 6 5 5 5 5 5 6 5 7 7 8 8 9 7 10 10 10 11 10 8 9 10 10 10 9 9 9 10 9 13 12 13 17 5 9 6 8 4 6 10 9 8 9 10 14 16 12 12 13 14 18 20 23 24 25 27 28 29 29 27 26 26 27 27 28 29 29 25 27 29 27 29 29
5 5 5 6 5 5 6 6 6 7 8 8 5 4 4 5 6 6 6 6 7 7 6 6 7 7 9 11 10 10 8 8 9 8 8 8 9 8 9 9 10 12 12 11 16 9 7 9 5 6 5 7 7 7 6 7 9 12 11 11 13 17 21 14 19 23 24 28 28 28 29 31 32 28 25 27 26 28 29 29 28 30 32 30 30
4 5 5 5 5 5 5 5 5 5 6 7 6 6 5 6 6 6 6 6 7 7 6 6 5 7 9 11 11 9 6 5 7 8 8 8 8 8 8 8 9 9 10 12 14 20 5 9 8 5 6 6 6 7 8 6 8 12 10 10 13 16 12 12 17 21 23 25 29 31 28 30 35 34 31 29 28 31 30 29 31 33 33 29 27
3 4 4 4 5 5 5 5 5 6 6 7 6 6 6 7 7 7 6 6 7 7 7 8 7 8 9 11 10 9 6 8 7 7 7 7 7 8 8 8 9 9 10 11 14 18 12 7 10 8 7 6 6 7 9 7 7 7 9 9 10 10 10 11 12 16 21 24 26 27 29 30 29 32 31 27 26 28 29 30 33 36 34 27 29
3 4 5 4 4 5 5 6 6 6 7 7 6 5 6 7 8 6 6 7 7 8 8 9 9 8 8 9 9 8 7 9 9 10 8 8 9 9 9 9 10 11 10 11 13 13 20 6 9 7 9 7 12 6 10 9 9 5 8 8 8 10 10 10 10 10 18 23 25 26 27 29 30 36 31 27 27 29 30 31 29 29 28 29 27
3 4 3 3 4 5 5 5 6 6 6 6 5 5 6 7 8 7 6 7 8 8 8 9 8 6 7 9 10 7 6 8 10 10 9 10 9 10 11 10 11 11 10 11 11 15 17 16 8 11 8 8 9 8 7 8 8 6 8 10 10 8 9 10 11 10 13 20 25 27 28 29 30 31 31 30 29 27 27 28 28 27 26 26 25
3 3 3 3 4 5 5 5 6 6 6 5 5 5 7 7 8 8 8 7 7 8 9 8 8 8 9 9 9 8 8 10 10 9 9 9 9 9 10 10 10 11 10 10 12 13 14 15 12 8 8 7 8 7 6 6 7 8 8 8 7 10 9 9 11 11 12 21 23 25 26 28 29 30 31 31 30 28 26 27 25 25 27 25 26
3 2 3 2 4 5 5 6 6 7 7 6 6 7 7 7 7 7 7 8 8 9 9 9 8 9 9 10 9 8 8 11 10 11 10 11 10 10 11 10 11 10 9 9 11 11 13 16 15 8 7 9 8 8 5 5 6 6 7 8 8 9 10 11 10 10 12 18 21 23 23 26 27 29 30 30 30 29 27 25 26 27 26 25 25
2 2 2 2 4 5 6 6 6 7 7 6 7 8 8 7 7 7 8 8 9 9 8 9 9 9 9 10 10 9 9 10 10 9 9 10 9 9 10 10 9 8 10 10 10 11 12 16 14 14 8 10 10 8 6 7 8 8 6 7 7 8 8 9 10 9 8 8 9 12 16 20 24 28 29 29 32 30 26 24 26 26 25 25 24
2 2 2 3 3 4 5 6 6 7 7 8 8 8 8 9 8 8 8 8 9 9 9 9 9 9 10 10 10 9 10 11 11 11 9 9 9 11 10 10 8 9 10 10 10 12 12 14 14 12 12 10 8 12 5 6 8 8 9 7 10 8 8 10 12 8 7 9 12 16 16 14 15 17 21 28 30 31 27 24 24 26 25 24 24
1 2 2 3 3 3 4 5 5 6 6 7 7 8 8 8 7 7 7 8 8 9 9 10 10 10 10 10 11 11 11 11 11 10 10 10 8 10 9 8 8 9 10 9 10 11 12 12 13 13 11 11 8 7 2 3 5 6 6 9 13 10 7 10 12 10 7 7 10 10 12 14 14 16 19 20 23 28 28 25 25 26 27 25 24
1 2 2 2 2 3 3 4 4 4 6 6 5 5 6 7 7 8 8 8 8 8 9 9 10 10 11 11 10 10 12 13 15 13 12 11 9 10 9 8 9 9 10 9 10 10 11 11 13 10 11 12 10 8 8 6 8 11 7 8 11 10 9 9 7 8 8 8 8 8 10 8 9 11 11 12 16 22 23 27 23 27 27 26 25
1 1 1 2 2 3 4 4 4 4 5 5 5 7 7 6 7 6 7 7 7 8 9 9 9 9 10 10 11 14 15 16 16 16 17 17 17 14 10 7 9 9 9 10 10 9 9 12 13 11 12 13 10 8 10 9 8 7 7 7 11 11 7 10 11 7 7 8 9 10 10 7 9 11 10 12 13 13 13 15 16 16 20 26 29
2 2 2 3 3 3 4 4 5 4 5 5 6 7 8 9 9 9 8 9 9 9 9 9 10 10 10 10 10 11 12 13 14 17 17 18 18 19 19 18 14 11 9 11 11 8 10 11 12 10 11 13 12 8 9 9 8 8 9 8 10 9 9 10 13 5 8 10 10 10 11 8 9 11 10 12 12 11 12 14 19 22 23 24 28
3 2 3 4 4 4 4 5 5 5 5 6 9 9 9 9 8 8 8 9 8 8 9 9 9 9 10 10 9 8 9 10 10 10 13 17 19 19 19 19 19 20 19 14 12 10 10 11 13 13 10 11 12 9 7 6 8 8 8 8 10 10 11 11 11 12 3 11 9 10 11 4 7 10 11 13 10 10 13 16 23 26 29 28 29
3 3 4 4 4 4 4 6 6 6 6 7 9 10 10 10 10 10 8 9 9 9 9 9 9 9 9 9 9 8 8 11 10 10 10 10 13 18 19 20 21 21 20 22 21 16 11 13 14 15 12 8 11 12 7 6 6 10 8 9 9 9 11 11 12 11 6 9 7 8 11 8 8 11 13 12 8 10 12 17 25 27 30 31 30
3 3 3 5 5 5 5 5 6 6 7 6 8 9 9 10 10 10 8 9 9 10 10 10 9 9 9 9 9 10 8 8 8 9 9 10 10 10 10 11 11 14 17 20 20 21 18 14 13 16 14 7 11 12 9 6 7 9 9 11 9 9 10 13 14 12 2 9 10 7 8 7 7 9 13 11 7 10 11 14 22 26 28 31 32
3 3 3 3 4 3 5 5 6 7 7 9 9 9 9 10 10 9 8 9 8 9 9 9 10 10 9 9 10 10 9 9 8 9 9 9 9 9 9 10 11 10 9 9 10 10 11 11 12 14 15 12 12 13 12 9 9 9 9 11 11 10 10 9 8 6 4 8 8 7 11 7 7 9 13 9 7 10 10 13 22 24 27 28 27
3 3 3 3 4 5 4 5 7 8 8 8 8 8 9 9 10 7 7 8 8 9 9 9 9 8 8 8 9 10 10 9 10 13 13 10 9 11 11 11 10 10 10 9 12 13 12 11 11 13 12 13 12 11 10 9 7 8 8 9 8 8 8 9 11 7 9 7 10 10 8 8 6 9 10 6 7 10 10 9 14 23 27 28 26
3 4 4 4 4 4 5 5 7 9 9 8 9 8 8 9 7 5 6 6 7 9 9 8 8 8 8 8 8 9 9 9 9 11 13 12 10 12 12 12 11 9 10 8 12 17 18 20 21 21 21 22 21 21 20 21 15 10 8 9 11 7 8 12 13 10 9 6 8 10 9 10 6 7 8 5 8 10 9 9 8 17 25 26 27
4 4 4 4 4 4 5 5 7 7 9 9 11 11 10 10 8 6 5 6 7 8 9 8 7 7 8 10 9 9 10 10 9 11 12 10 11 11 11 12 12 11 10 8 8 10 15 18 19 20 21 21 21 22 22 20 18 13 9 13 11 5 9 10 11 11 7 7 8 9 7 10 3 5 5 2 3 7 8 7 8 9 19 23 28
5 4 4 4 4 4 4 6 8 8 9 9 10 11 11 10 7 4 5 6 8 8 7 9 7 7 8 8 10 11 11 13 16 16 17 13 10 10 10 10 12 13 11 8 9 9 8 8 9 10 11 14 13 12 12 17 17 14 10 11 9 9 9 11 11 9 9 8 7 12 9 7 6 7 6 1 4 5 5 7 8 8 9 10 12
Wind_Direction
195 183 183 183 172 181 179 185 183 179 183 189 185 192 196 195 190 198 200 200 185 207 210 209 222 220 219 218 222 227 213 214 196 204 215 159 170 162 223 228 193 190 214 158 167 159 159 164 148 152 145 148 144 141 146 150 154 140 141 135 139 138 138 129 146 139 133 132 129 132 130 125 121 119 126 125 117 115 115 115 113 113 112 110 108
198 197 184 179 172 180 191 191 189 188 189 196 191 198 197 193 201 200 203 206 202 207 207 211 226 217 223 212 217 231 208 219 212 216 228 222 191 158 188 235 293 231 232 278 192 173 171 173 173 167 159 153 161 154 160 158 162 150 152 163 162 167 140 143 157 142 137 139 138 139 135 134 135 140 129 118 121 128 124 121 120 117 116 113 112
209 207 193 177 181 184 196 187 196 190 194 197 190 205 201 202 197 206 205 211 212 196 214 224 217 226 228 228 213 221 222 229 218 225 231 219 213 164 185 193 280 261 268 256 191 195 175 181 187 175 176 165 168 177 163 174 174 172 159 163 162 166 162 159 159 158 141 147 151 147 147 146 150 147 139 136 137 134 132 130 127 122 117 118 116
223 212 212 181 190 190 196 192 198 192 194 195 185 201 204 207 195 224 223 217 218 206 215 231 217 219 214 219 219 219 216 230 235 225 229 225 219 170 181 199 229 274 287 237 200 225 192 191 189 195 200 182 182 177 187 174 179 176 189 203 184 155 179 162 169 170 155 159 164 160 158 161 160 154 149 148 147 145 142 141 136 133 127 123 120
220 217 213 193 196 192 197 198 203 189 193 188 188 192 200 190 190 199 214 225 226 221 217 231 230 221 218 215 212 215 228 222 227 215 215 231 228 203 195 195 205 207 240 251 248 200 214 200 212 193 199 201 182 194 190 188 188 193 191 178 194 208 173 186 184 185 179 174 169 173 170 174 174 166 164 160 158 157 152 149 147 142 141 134 132
211 207 203 203 195 195 199 199 208 191 191 180 191 195 202 203 200 197 211 218 220 223 214 223 232 230 209 216 218 213 217 225 222 205 204 207 222 228 198 192 201 209 206 218 254 209 229 237 223 193 213 196 211 207 203 196 199 196 210 184 177 195 203 199 203 195 191 185 189 181 184 183 186 184 177 174 168 167 164 159 157 154 151 149 142
209 206 202 209 202 201 200 201 197 189 193 193 202 205 208 207 204 203 204 209 222 220 222 225 225 221 215 206 214 213 214 214 215 213 207 224 219 234 230 195 205 196 199 208 185 222 261 257 199 205 207 201 224 211 209 211 206 206 200 217 207 204 206 201 206 209 205 200 186 199 197 197 196 195 191 186 182 178 176 174 170 167 163 161 158
210 208 212 211 211 210 205 198 183 185 198 200 209 211 211 212 213 214 209 211 216 220 217 226 228 228 222 217 215 203 208 217 219 220 216 234 243 235 235 248 231 223 194 200 205 204 210 242 220 203 225 204 221 215 218 213 218 209 208 218 217 212 209 209 212 211 212 211 207 200 206 206 200 202 202 198 196 193 189 188 183 179 177 173 171
209 209 214 210 213 214 204 194 180 191 192 199 208 219 215 212 215 215 226 218 217 222 218 224 228 230 224 209 195 192 249 266 306 349 34 262 252 252 256 251 280 359 261 225 211 202 192 207 227 218 234 200 217 218 218 224 220 215 216 219 223 221 223 218 213 215 215 215 215 215 208 214 210 205 209 207 204 201 202 198 194 193 188 189 182
208 210 214 217 221 221 213 191 181 189 195 200 209 217 223 212 219 213 219 225 219 215 220 218 222 209 186 181 58 3 359 9 351 331 285 252 243 251 249 274 307 293 287 267 264 248 192 196 204 224 233 242 237 223 218 221 224 231 214 217 219 211 216 216 217 219 219 219 219 221 216 212 217 216 214 212 210 209 208 207 205 203 202 199 196
207 209 213 214 220 219 217 186 177 182 192 199 205 214 223 220 217 212 212 223 237 231 232 226 189 168 179 112 75 358 324 311 302 272 260 271 306 314 318 282 281 276 276 291 289 297 308 201 202 212 225 231 236 222 217 225 226 224 222 220 221 220 213 209 220 222 223 223 224 224 227 224 217 220 220 213 215 215 214 211 213 212 209 207 206
209 205 204 203 210 215 201 163 181 189 196 206 210 212 217 214 213 215 201 205 225 291 31 80 61 37 1 255 205 210 224 223 239 248 250 256 253 256 262 275 259 257 254 295 299 304 272 294 219 205 217 216 220 220 221 227 225 224 225 225 221 222 226 217 221 225 228 228 226 226 229 227 235 226 226 225 219 221 219 217 217 217 216 207 214
203 192 192 191 201 203 201 188 190 198 206 213 211 214 211 205 206 209 199 195 182 122 95 86 91 266 209 253 259 225 224 206 238 241 231 234 226 223 224 251 254 254 245 227 284 298 291 260 254 224 212 219 215 222 225 233 234 228 229 228 231 227 219 221 224 224 229 225 227 231 230 230 225 237 227 229 228 218 221 223 223 221 221 218 215
187 189 190 196 205 216 215 209 200 212 220 223 215 208 180 181 169 175 198 209 204 143 146 129 223 224 245 263 247 239 217 215 236 237 226 221 214 228 226 224 233 234 217 253 238 252 260 267 262 246 226 225 215 213 223 232 237 232 229 232 235 241 234 223 222 225 219 225 227 225 232 236 228 233 237 225 234 235 229 226 226 226 226 224 224
190 195 196 207 214 211 212 210 210 205 205 210 198 183 178 176 169 198 151 125 197 151 181 193 228 133 14 10 276 290 218 229 231 233 215 217 198 228 227 230 232 226 220 216 235 247 247 250 258 258 249 235 237 223 219 223 224 226 229 233 240 241 244 241 227 204 210 214 224 232 231 231 233 226 236 235 223 227 235 226 228 229 229 229 227
214 207 209 219 207 204 205 206 194 188 196 199 181 181 157 165 167 190 141 177 210 227 197 204 213 126 262 218 289 301 300 247 221 225 196 204 204 221 212 232 229 227 221 220 216 220 242 242 247 253 259 256 240 239 235 224 222 223 228 233 239 244 243 244 243 243 235 223 224 231 230 233 234 232 229 237 238 228 231 235 228 228 230 231 232
218 217 207 208 200 198 192 201 212 175 181 208 202 204 192 183 182 196 199 213 226 218 198 201 213 208 206 128 202 231 237 274 318 260 162 201 218 217 219 218 225 225 223 234 217 229 238 239 242 243 246 254 255 247 242 249 232 224 227 229 234 240 248 245 243 237 236 239 229 225 229 230 231 234 236 232 237 234 228 234 236 227 230 232 232
215 212 204 202 205 195 191 202 209 199 204 215 214 206 206 200 196 199 209 210 220 205 212 190 215 225 238 244 250 277 286 281 148 279 114 232 220 211 218 220 220 219 216 235 234 234 228 238 236 242 241 241 246 253 248 245 242 242 228 227 227 233 235 244 244 243 242 240 233 233 232 224 228 234 238 238 234 240 236 233 236 236 229 229 231
226 223 219 217 217 199 190 189 196 208 205 210 217 212 208 203 192 195 205 211 218 239 233 191 184 236 235 244 255 224 130 264 253 294 283 172 237 225 221 222 224 227 233 231 233 232 231 229 234 236 240 238 238 242 245 245 243 242 241 236 234 231 230 237 241 243 244 243 242 231 230 227 223 227 233 240 239 236 239 234 234 235 235 229 227
223 219 211 211 216 212 194 189 189 195 198 210 213 207 199 194 199 193 202 205 212 224 233 212 186 222 205 234 241 253 228 69 65 268 276 286 260 226 246 232 213 229 230 232 231 230 234 230 231 229 230 234 233 239 240 240 243 246 247 245 240 235 229 232 234 237 244 250 256 253 240 236 230 229 231 232 239 241 239 241 236 232 233 234 227
210 207 199 201 201 209 203 210 213 214 204 215 218 210 212 204 193 194 196 205 209 216 226 224 196 226 175 220 234 245 252 253 245 158 246 268 268 259 260 187 242 234 233 232 234 233 232 232 229 230 230 231 228 235 237 236 235 236 240 242 240 238 235 230 231 234 235 239 250 258 260 248 239 233 232 226 229 235 238 240 243 239 234 234 230
223 223 221 210 199 201 206 209 210 211 208 209 208 213 212 210 206 202 203 205 203 210 220 231 226 228 225 221 208 231 249 257 239 239 246 233 259 258 261 261 253 228 222 227 231 234 236 232 231 230 229 230 229 228 228 230 232 232 234 237 242 242 239 236 229 228 230 233 237 249 253 251 252 249 238 236 230 226 228 234 241 243 239 238 237
235 224 210 213 208 196 203 206 207 208 212 214 210 210 219 221 218 217 219 216 220 219 225 235 235 229 229 224 225 216 220 225 232 226 229 242 250 253 259 254 264 276 230 219 223 230 232 224 227 231 230 230 233 229 225 228 230 233 233 234 239 242 243 242 235 227 228 227 228 234 241 244 252 260 252 240 237 234 232 231 233 239 241 241 240
234 227 213 221 217 207 205 209 209 211 216 215 219 217 215 215 210 212 219 217 218 219 225 229 215 227 228 219 230 230 236 238 243 232 228 243 248 264 261 272 267 245 261 239 227 232 223 223 222 229 231 233 231 229 229 231 231 230 232 233 234 236 238 240 239 235 228 227 227 231 234 237 242 252 259 251 241 239 239 237 236 236 239 240 238
226 229 225 220 218 224 214 210 216 215 218 212 216 211 214 217 222 224 221 218 214 214 221 227 218 221 227 227 233 236 239 241 243 243 248 254 249 267 260 252 261 267 256 209 246 224 227 231 216 225 229 227 229 226 228 230 232 230 229 233 229 233 236 240 242 241 236 230 229 231 233 233 234 240 249 251 246 242 240 240 241 243 241 240 240
224 227 228 227 226 228 227 226 226 225 216 218 212 209 214 218 216 218 219 216 213 217 223 228 231 229 213 229 232 237 241 235 234 237 244 242 248 248 270 259 252 268 259 225 231 263 233 218 216 226 227 229 230 228 227 229 230 234 232 230 228 231 233 236 240 244 247 241 233 231 231 233 235 234 242 249 250 249 247 247 243 244 244 244 244
242 238 218 215 221 227 232 237 237 231 218 216 220 215 216 218 220 220 220 209 221 218 218 223 228 222 220 227 238 240 242 235 233 243 241 241 243 248 252 270 270 256 268 243 242 218 252 220 206 221 223 222 224 229 231 230 229 233 235 233 236 233 233 235 237 240 243 247 247 237 233 233 233 233 234 238 244 248 245 246 251 246 243 246 245
259 259 251 228 222 237 227 237 243 243 233 218 218 218 216 220 228 225 225 219 222 213 212 216 230 230 233 236 236 243 242 234 236 241 240 242 244 247 246 252 267 280 262 270 246 259 207 240 210 213 218 213 222 225 229 233 239 238 235 233 231 233 231 235 236 238 239 241 244 245 237 233 232 231 228 230 237 240 242 244 246 252 252 249 247
253 257 256 246 237 235 243 229 234 241 247 235 216 212 215 222 230 234 236 229 230 235 231 229 236 231 237 236 236 244 243 238 240 239 240 240 240 242 235 242 247 262 277 272 260 261 213 204 241 213 212 215 222 222 230 226 232 233 232 227 229 233 229 232 236 238 240 241 242 244 245 236 230 229 230 230 234 235 234 233 241 245 247 260 253
226 233 233 235 228 221 234 243 244 238 237 242 232 219 223 231 233 238 240 236 239 241 237 240 242 231 234 237 238 245 245 239 238 238 238 236 236 234 237 239 233 247 259 272 278 194 270 201 224 243 187 221 215 223 222 230 229 226 227 229 229 233 232 231 236 239 241 242 243 242 241 240 233 231 231 229 230 234 235 228 234 239 237 239 250
219 219 226 235 233 227 225 233 235 242 244 243 233 217 229 248 237 236 231 228 233 240 236 231 239 231 232 240 242 246 244 243 246 243 240 241 241 237 240 234 238 242 254 261 276 262 198 256 239 228 231 214 219 224 230 235 238 228 226 226 230 232 233 232 233 238 240 241 242 244 243 241 240 232 225 225 229 232 233 234 233 235 234 231 236
226 227 234 234 234 231 232 234 238 240 243 241 235 220 214 233 240 239 231 223 236 242 245 237 235 233 238 243 243 245 239 241 248 247 245 238 237 241 239 240 242 237 246 256 254 270 203 268 268 251 226 234 210 219 234 239 237 228 227 226 229 232 233 238 236 236 239 242 244 244 243 243 241 240 234 230 228 232 230 229 234 238 237 233 230
232 234 234 242 246 243 238 239 238 241 242 245 242 239 233 236 239 239 236 225 227 235 236 241 233 228 234 238 241 238 230 241 244 247 243 240 236 238 239 244 243 238 239 247 258 271 268 229 264 257 254 234 242 200 235 232 235 231 227 232 230 230 230 234 237 236 237 241 243 244 245 245 244 245 243 237 230 231 231 229 230 234 236 226 228
237 240 246 245 244 247 247 248 245 241 245 248 245 237 246 246 246 240 242 234 234 236 231 238 234 229 221 229 232 233 225 236 241 242 235 230 232 232 235 233 239 242 230 246 255 263 276 245 256 251 259 234 259 190 227 238 249 230 231 228 232 228 231 233 237 235 231 238 241 243 243 243 244 244 244 242 242 237 230 230 231 235 230 226 227
240 242 250 253 252 249 252 256 256 253 252 253 255 258 251 248 251 253 242 237 245 249 249 251 256 256 245 247 250 245 239 242 239 240 234 236 230 233 235 230 238 237 237 236 252 261 266 272 244 264 250 249 234 246 226 236 243 230 234 232 230 232 231 234 237 239 232 235 238 239 240 241 241 242 243 243 240 240 234 230 230 229 226 226 227
250 249 236 257 274 272 265 263 264 268 265 268 261 254 257 256 253 253 255 251 245 246 248 248 244 242 245 248 248 239 235 241 242 241 236 234 233 235 237 238 239 241 235 234 238 251 267 274 264 241 263 256 257 251 246 226 227 233 232 246 232 239 237 232 233 239 234 237 241 242 242 242 241 240 241 242 240 238 235 226 219 224 226 227 226
248 261 269 266 268 269 267 260 258 257 259 259 259 256 254 253 256 257 254 251 247 245 243 244 242 240 243 244 248 236 231 237 238 236 235 233 232 233 236 236 239 242 242 238 242 246 260 264 273 257 253 259 258 263 232 228 233 230 241 238 235 238 241 239 241 240 243 243 245 246 244 243 241 240 240 240 240 237 231 222 222 222 225 225 226
238 258 251 249 249 252 256 262 262 260 259 257 254 254 254 255 249 245 248 251 253 251 249 247 245 241 243 246 244 237 235 236 243 241 239 242 241 241 240 241 239 242 243 242 243 248 250 261 266 277 254 258 268 250 225 220 241 250 240 242 250 240 241 250 241 239 236 234 237 241 245 246 245 244 241 240 240 239 233 221 220 225 224 226 228
242 246 237 240 238 246 256 259 260 261 260 258 257 256 257 257 256 252 245 246 252 255 255 254 252 248 248 249 248 240 238 237 242 241 239 239 237 241 239 243 237 240 242 243 242 246 250 259 265 261 272 258 246 268 229 206 228 233 251 265 254 226 230 238 251 235 225 239 241 238 237 235 240 243 243 242 241 239 238 229 223 224 224 225 225
242 250 258 260 265 256 255 257 264 265 260 257 255 255 257 257 258 256 255 248 249 251 254 255 253 253 250 249 247 244 242 241 239 240 232 240 235 244 238 238 239 238 245 246 245 246 251 255 259 266 259 268 258 249 266 131 234 257 230 238 258 257 225 230 234 243 228 220 238 237 239 240 243 246 249 249 249 245 241 240 233 225 224 223 220
277 268 266 271 272 272 270 267 264 263 264 260 257 255 254 257 259 264 266 265 257 254 254 254 252 252 253 251 250 248 244 246 244 243 241 236 237 244 239 227 236 236 245 243 244 245 251 254 262 259 266 265 257 258 249 224 218 240 225 216 250 257 259 264 246 216 219 225 238 237 239 224 236 237 234 237 238 239 241 241 239 230 223 220 218
294 294 292 288 278 276 278 272 266 263 261 260 254 262 269 272 278 280 278 271 265 260 260 262 259 254 254 254 256 251 249 247 246 246 247 246 245 245 247 226 230 235 243 248 248 246 252 257 258 263 262 262 261 244 251 247 240 237 237 227 244 253 255 259 266 233 193 209 229 239 239 215 222 237 231 235 240 232 233 235 235 232 225 222 220
328 326 300 287 278 269 265 266 264 255 253 255 256 250 246 247 255 267 272 274 273 271 266 264 266 266 263 259 260 256 251 251 251 251 251 251 251 251 251 250 247 242 245 246 247 243 250 257 263 258 258 267 265 253 250 258 245 235 234 228 241 250 245 253 265 262 175 193 217 237 243 209 205 233 233 234 235 229 231 234 238 235 229 224 222
317 306 291 274 275 273 267 265 262 256 252 239 241 247 248 246 241 256 268 271 271 266 265 261 263 264 266 265 260 258 252 250 251 250 246 246 248 251 252 252 250 248 246 245 254 255 247 257 263 258 259 261 273 262 257 251 254 249 237 226 235 234 241 244 249 256 209 176 204 223 247 196 196 227 235 234 227 226 227 230 232 232 231 226 224
298 282 272 274 267 265 262 266 267 263 263 242 235 239 242 244 245 245 257 259 262 264 265 265 264 264 264 265 267 257 259 254 247 249 253 251 241 242 247 250 250 248 249 249 246 246 254 255 260 267 257 263 269 267 250 249 246 254 249 242 234 231 236 241 248 254 226 179 189 222 241 223 179 220 236 235 221 228 233 233 234 234 234 234 230
267 268 266 260 259 255 255 263 271 274 271 261 241 241 244 244 246 244 254 258 258 260 262 263 262 262 258 262 266 266 258 252 249 248 250 249 252 249 246 244 246 247 247 248 250 250 248 250 257 263 267 250 257 270 265 252 250 255 256 256 248 239 237 239 242 246 219 159 191 206 249 231 182 215 238 236 207 226 230 227 231 233 233 231 229
279 273 271 270 258 257 263 266 270 273 270 269 260 256 257 254 254 248 259 258 259 258 256 256 258 257 259 257 259 265 266 258 251 246 249 250 250 250 250 250 248 248 243 237 237 241 244 245 250 257 265 261 258 262 267 261 252 254 252 259 260 253 251 259 269 250 210 191 182 188 241 238 174 215 238 233 214 230 230 229 230 231 232 230 223
284 278 277 273 281 279 270 266 269 272 275 267 266 261 263 269 260 255 257 256 258 259 255 254 255 257 258 258 261 264 264 263 257 250 250 255 258 257 256 257 256 253 250 242 242 244 245 247 248 253 259 262 260 258 258 256 256 257 258 259 261 255 255 246 251 234 229 194 186 197 234 244 182 207 242 225 212 232 229 228 228 230 231 229 221
299 294 291 285 285 286 284 278 276 279 284 286 283 281 281 283 280 273 270 271 268 268 267 264 264 264 260 258 259 265 268 266 265 259 258 254 258 259 260 263 262 261 260 254 247 251 251 250 253 256 263 267 268 269 267 264 261 259 260 259 253 238 232 249 254 250 238 180 200 198 216 246 202 200 239 223 212 229 229 227 217 225 229 228 223
301 296 291 282 272 265 270 274 271 283 286 286 288 288 286 284 280 280 280 279 276 274 277 272 271 271 267 265 263 268 272 275 278 273 268 260 260 262 263 268 271 268 265 259 257 254 252 256 260 262 262 265 267 268 269 268 267 262 256 254 266 227 232 237 251 252 254 204 200 180 199 236 173 203 219 245 226 235 228 227 214 213 223 230 229
283 283 281 287 287 285 281 280 282 276 280 284 282 282 281 279 272 274 276 280 280 277 280 282 274 267 270 266 259 257 264 270 272 271 269 264 263 265 268 270 271 269 265 262 261 265 265 263 261 265 266 265 265 263 262 262 258 254 246 254 263 249 239 247 251 260 262 241 175 167 200 231 193 221 164 144 241 231 207 221 214 205 208 212 223